N192KQ RP15-RPSM

Flight info

Callsign N192KQ
Flight time 0h 23m
Altitude 4500
Route RP15 RPVH RPSM
Aircraft KODI/L-V/N

Departure

Time 2026-04-18 05:29
Airport Isabel PASAR Airport (RP15)

Arrival

Time 2026-04-18 05:52
Airport Maasin Airport (RPSM)
Time Latitude Longitude Altitude Speed Heading
2026-04-18 05:17 10.91217 124.43833 15 ft 0 kts 82°
2026-04-18 05:17 10.91217 124.43832 15 ft 0 kts 118°
2026-04-18 05:17 10.91225 124.43844 15 ft 0 kts 129°
2026-04-18 05:25 10.91221 124.43844 18 ft 2 kts 205°
2026-04-18 05:25 10.91205 124.43811 14 ft 8 kts 274°
2026-04-18 05:26 10.91247 124.43798 14 ft 8 kts 34°
2026-04-18 05:26 10.91296 124.43838 17 ft 11 kts 38°
2026-04-18 05:26 10.91372 124.43900 18 ft 17 kts 39°
2026-04-18 05:26 10.91472 124.43980 17 ft 19 kts 38°
2026-04-18 05:27 10.91573 124.44062 19 ft 17 kts 38°
2026-04-18 05:27 10.91630 124.44111 18 ft 8 kts 45°
2026-04-18 05:27 10.91646 124.44121 18 ft 1 kts 229°
2026-04-18 05:27 10.91640 124.44117 18 ft 0 kts 217°
2026-04-18 05:28 10.91528 124.44028 18 ft 51 kts 217°
2026-04-18 05:29 10.91102 124.43703 70 ft 95 kts 220°
2026-04-18 05:29 10.90539 124.43246 293 ft 111 kts 226°
2026-04-18 05:29 10.89956 124.42719 624 ft 113 kts 225°
2026-04-18 05:29 10.89291 124.42227 818 ft 129 kts 218°
2026-04-18 05:30 10.88486 124.41732 1038 ft 138 kts 201°
2026-04-18 05:30 10.87515 124.41872 1219 ft 151 kts 145°
2026-04-18 05:30 10.86908 124.42726 1454 ft 150 kts 116°
2026-04-18 05:30 10.86432 124.43677 1701 ft 154 kts 117°
2026-04-18 05:31 10.86050 124.44673 1987 ft 150 kts 96°
2026-04-18 05:31 10.85903 124.45732 2218 ft 152 kts 98°
2026-04-18 05:31 10.85729 124.46788 2468 ft 151 kts 98°
2026-04-18 05:31 10.85549 124.47844 2690 ft 152 kts 97°
2026-04-18 05:32 10.85365 124.48896 2954 ft 151 kts 98°
2026-04-18 05:32 10.85184 124.49950 3215 ft 151 kts 98°
2026-04-18 05:32 10.85001 124.51008 3455 ft 152 kts 98°
2026-04-18 05:32 10.84819 124.52070 3686 ft 153 kts 98°
2026-04-18 05:33 10.84631 124.53142 3910 ft 153 kts 98°
2026-04-18 05:33 10.84445 124.54200 4125 ft 154 kts 98°
2026-04-18 05:33 10.84257 124.55278 4351 ft 154 kts 97°
2026-04-18 05:33 10.84060 124.56355 4488 ft 159 kts 98°
2026-04-18 05:34 10.83854 124.57500 4484 ft 168 kts 98°
2026-04-18 05:34 10.83645 124.58692 4490 ft 173 kts 98°
2026-04-18 05:34 10.83432 124.59908 4494 ft 176 kts 97°
2026-04-18 05:34 10.83218 124.61131 4492 ft 179 kts 98°
2026-04-18 05:35 10.82999 124.62377 4493 ft 180 kts 98°
2026-04-18 05:35 10.82777 124.63639 4497 ft 182 kts 98°
2026-04-18 05:35 10.82559 124.64908 4497 ft 182 kts 98°
2026-04-18 05:35 10.82341 124.66183 4495 ft 183 kts 98°
2026-04-18 05:36 10.82124 124.67460 4498 ft 183 kts 98°
2026-04-18 05:36 10.81903 124.68742 4494 ft 184 kts 98°
2026-04-18 05:36 10.81685 124.70006 4498 ft 184 kts 98°
2026-04-18 05:36 10.81459 124.71286 4495 ft 184 kts 98°
2026-04-18 05:37 10.81236 124.72573 4497 ft 185 kts 98°
2026-04-18 05:37 10.80665 124.73736 4501 ft 188 kts 136°
2026-04-18 05:37 10.79518 124.74376 4499 ft 190 kts 157°
2026-04-18 05:37 10.78288 124.74873 4500 ft 190 kts 158°
2026-04-18 05:38 10.77054 124.75370 4500 ft 191 kts 158°
2026-04-18 05:38 10.75821 124.75869 4496 ft 191 kts 158°
2026-04-18 05:38 10.74602 124.76362 4497 ft 191 kts 158°
2026-04-18 05:38 10.73364 124.76862 4497 ft 191 kts 158°
2026-04-18 05:39 10.72116 124.77340 4498 ft 191 kts 165°
2026-04-18 05:39 10.70790 124.77448 4493 ft 192 kts 179°
2026-04-18 05:39 10.69450 124.77445 4496 ft 192 kts 180°
2026-04-18 05:39 10.68116 124.77442 4492 ft 192 kts 180°
2026-04-18 05:40 10.66788 124.77437 4496 ft 190 kts 180°
2026-04-18 05:40 10.65479 124.77435 4494 ft 190 kts 180°
2026-04-18 05:40 10.64157 124.77434 4493 ft 190 kts 180°
2026-04-18 05:40 10.62835 124.77438 4494 ft 190 kts 180°
2026-04-18 05:41 10.61496 124.77436 4472 ft 196 kts 179°
2026-04-18 05:41 10.60143 124.77365 4479 ft 194 kts 189°
2026-04-18 05:41 10.58817 124.77097 4479 ft 198 kts 192°
2026-04-18 05:41 10.57480 124.76816 4509 ft 196 kts 192°
2026-04-18 05:42 10.56129 124.76533 4519 ft 198 kts 192°
2026-04-18 05:42 10.54774 124.76239 4490 ft 198 kts 192°
2026-04-18 05:42 10.53451 124.75964 4492 ft 196 kts 193°
2026-04-18 05:42 10.52134 124.75603 4492 ft 195 kts 197°
2026-04-18 05:43 10.50808 124.75205 4507 ft 202 kts 196°
2026-04-18 05:43 10.49456 124.74791 4485 ft 203 kts 197°
2026-04-18 05:43 10.48115 124.74381 4499 ft 197 kts 196°
2026-04-18 05:43 10.46792 124.73990 4497 ft 196 kts 197°
2026-04-18 05:44 10.45929 124.73729 4493 ft 194 kts 197°
2026-04-18 05:44 10.41668 124.73474 4501 ft 198 kts 176°
2026-04-18 05:45 10.40292 124.73559 4488 ft 199 kts 175°
2026-04-18 05:45 10.38931 124.73639 4489 ft 194 kts 176°
2026-04-18 05:45 10.37598 124.73721 4488 ft 189 kts 176°
2026-04-18 05:45 10.36287 124.73797 4486 ft 188 kts 176°
2026-04-18 05:46 10.34988 124.73875 4487 ft 187 kts 176°
2026-04-18 05:46 10.33686 124.73954 4482 ft 187 kts 175°
2026-04-18 05:46 10.32393 124.74031 4490 ft 185 kts 176°
2026-04-18 05:46 10.31105 124.74114 4485 ft 186 kts 176°
2026-04-18 05:47 10.29816 124.74196 4488 ft 185 kts 176°
2026-04-18 05:47 10.28545 124.74278 4484 ft 185 kts 176°
2026-04-18 05:47 10.27235 124.74367 4285 ft 189 kts 176°
2026-04-18 05:47 10.25951 124.74573 3989 ft 187 kts 164°
2026-04-18 05:48 10.24684 124.74943 3627 ft 190 kts 163°
2026-04-18 05:48 10.23407 124.75321 3272 ft 191 kts 163°
2026-04-18 05:48 10.22158 124.75684 2879 ft 182 kts 163°
2026-04-18 05:48 10.20970 124.76038 2406 ft 171 kts 163°
2026-04-18 05:49 10.19844 124.76381 1944 ft 167 kts 163°
2026-04-18 05:49 10.18742 124.76727 1486 ft 169 kts 163°
2026-04-18 05:49 10.17647 124.77089 1044 ft 164 kts 162°
2026-04-18 05:49 10.16620 124.77429 982 ft 145 kts 163°
2026-04-18 05:50 10.15707 124.77723 984 ft 135 kts 163°
2026-04-18 05:50 10.14864 124.78001 987 ft 114 kts 163°
2026-04-18 05:50 10.14383 124.78460 986 ft 95 kts 97°
2026-04-18 05:50 10.14682 124.79044 995 ft 100 kts 46°
2026-04-18 05:51 10.15270 124.79390 941 ft 99 kts 352°
2026-04-18 05:51 10.15916 124.79187 828 ft 96 kts 334°
2026-04-18 05:51 10.16493 124.78931 687 ft 86 kts 338°
2026-04-18 05:51 10.17047 124.78754 588 ft 81 kts 339°
2026-04-18 05:52 10.17576 124.78609 473 ft 76 kts 342°
2026-04-18 05:52 10.18067 124.78459 388 ft 73 kts 342°
2026-04-18 05:52 10.18507 124.78340 337 ft 55 kts 344°
2026-04-18 05:52 10.18730 124.78279 332 ft 24 kts 345°
2026-04-18 05:53 10.18848 124.78244 330 ft 9 kts 336°
2026-04-18 05:53 10.18821 124.78189 333 ft 12 kts 211°
2026-04-18 05:53 10.18769 124.78175 332 ft 7 kts 184°
2026-04-18 05:53 10.18721 124.78168 333 ft 7 kts 178°
2026-04-18 05:54 10.18691 124.78167 335 ft 1 kts 224°
2026-04-18 05:54 10.18691 124.78165 335 ft 0 kts 259°
2026-04-18 06:05 10.18691 124.78166 338 ft 0 kts 258°